Location: Unspecified
(0.0000°N, 0.0000°E)
Time: 11:06:34
(UTC+00:00)

Explorer 7 - Pass Details

Date: 28 November 2019
Orbit: 485 x 680 km, 50.3° (Epoch: 14 December)

Event Time Altitude Azimuth Distance (km) Brightness Sun altitude
Rises 18:41:40 0° 256° (WSW) 2,981 12.5 -12.5°
Reaches altitude 10° 18:45:36 10° 288° (WNW) 2,092 10.5 -13.4°
Maximum altitude 18:47:18 12° 309° (NW) 1,985 10.0 -13.8°
Drops below altitude 10° 18:48:59 10° 329° (NNW) 2,101 9.9 -14.2°
Sets 18:53:00 0° 1° (N) 3,014 10.4 -15.1°
